カタログに戻る

SL-14 DEB

運用中PO
NORAD 26014·DEBRIS·🇷🇺 Russia

打ち上げ Sep 28, 1991 から Plesetsk Cosmodrome

Loading…

次のパス (今後24時間)

TLE

最新Source: Space-Track

元期: Sep 14, 2026, 07:47 UTC

1 26014U 91068Z   26257.32462869  .00000010  00000-0  24697-5 0  9993
2 26014  82.7379 278.7326 0043878 324.5611  47.8017 12.44509329222998

AllMySatでSL-14 DEBをリアルタイム追跡

Download on the App Store